Content
SEND FEEDBACK

Daily
Averages
Monthly
Summary
Czech Republic

CHEB, CZECH REPUBLIC


Home > Europe > Czech Republic
Elevation: 1545 feet     Latitude: 50 05N     Longitude: 012 24E

WEATHER
 
SELECT A DAY
Number of Records: 78,767;   Date Range: 6/5/97 - 7/11/14
 
SHARE

PRINT THIS DATA

[ ← Previous Day ]
WEATHER ALMANAC - MARCH 14, 2013
[ Next Day → ]
[ °C ]   °F
Weather ElementAverageHighLow
Temperature20.7 °F28.4 °F (1:00 pm)10.4 °F (6:00 am)
Dewpoint13.2 °F17.6 °F (6:00 pm)6.8 °F (6:00 am)
Humidity73.4 %93 % (11:00 pm)59 % (12:00 pm)
Barometer29.69 in29.74 in (7:30 pm)29.65 in (1:00 am)
Wind Speed5.1 mph10.4 mph (1:30 pm)
Weather ElementAverage
Visibility6.1 mi
Wind DirectionWSW (236.2 °)

Weather ElementTotal
Precipitation---
Heating Degree Days45.6 (Base 65)
Averaged from 37 records on March 14, 2013
WEATHER CONDITIONS BREAKOUT
WIND DIRECTION BREAKOUT
WEATHER BY HOUR - MARCH 14, 2013
[ °C ]   °F
Local TimeTemperatureDewpointHumidityBarometerVisibilityWind DirectionWind SpeedGust SpeedPrecipitationEventsConditions
1:00 AM17.6 °F12.2 °F79 %29.65 in6.2 miNorth (350°)3.5 mphSnowLight Snow
2:00 AM17.6 °F12.2 °F79 %29.65 in6.2 miNW (320°)2.3 mphSnowLight Snow
3:00 AM17.6 °F12.2 °F79 %29.65 in6.2 miVariable1.2 mphSnowLight Snow
4:00 AM15.8 °F10.4 °F79 %29.65 in6.2 miWest (280°)5.8 mphOvercast
5:00 AM15.8 °F10.4 °F79 %29.65 in6.2 miVariable2.3 mphOvercast
6:00 AM10.4 °F6.8 °F85 %29.65 in6.2 miVariable1.2 mphScattered Clouds
7:00 AM10.4 °F8.6 °F92 %29.68 inVariable1.2 mphClear
7:30 AM12.2 °F8.6 °F85 %29.68 inCalmClear
8:00 AM15.8 °F10.4 °F79 %29.68 inWSW (240°)2.3 mphClear
8:30 AM15.8 °F10.4 °F79 %29.68 inWNW (290°)3.5 mphClear
9:00 AM17.6 °F10.4 °F73 %29.68 inWNW (300°)2.3 mphClear
9:30 AM19.4 °F10.4 °F68 %29.68 inVariable2.3 mphClear
10:00 AM21.2 °F12.2 °F68 %29.68 inWest (280°)4.6 mphClear
10:30 AM21.2 °F12.2 °F68 %29.68 inWest (280°)5.8 mphClear
11:00 AM23.0 °F12.2 °F63 %29.68 inWNW (290°)9.2 mphClear
11:30 AM24.8 °F14.0 °F64 %29.68 inWNW (290°)6.9 mphClear
12:00 PM26.6 °F14.0 °F59 %29.68 in6.2 miWNW (290°)9.2 mphPartly Cloudy
12:30 PM26.6 °F15.8 °F64 %29.68 in6.2 miWNW (290°)9.2 mphPartly Cloudy
1:00 PM28.4 °F15.8 °F59 %29.68 in6.2 miWNW (290°)9.2 mphScattered Clouds
1:30 PM26.6 °F15.8 °F64 %29.68 in6.2 miNNW (330°)10.4 mphScattered Clouds
2:00 PM26.6 °F14.0 °F59 %29.68 in6.2 miNNW (330°)9.2 mphScattered Clouds
2:30 PM28.4 °F15.8 °F59 %29.68 in6.2 miNNW (330°)10.4 mphScattered Clouds
3:00 PM26.6 °F15.8 °F64 %29.68 in6.2 miNNW (340°)10.4 mphSnowLight Snow Showers
3:30 PM24.8 °F14.0 °F64 %29.68 in6.2 miNNW (330°)10.4 mphSnowLight Snow Showers
4:00 PM26.6 °F15.8 °F64 %29.68 in6.2 miNNW (340°)8.1 mphSnowLight Snow Showers
4:30 PM24.8 °F15.8 °F69 %29.68 in6.2 miNNW (330°)8.1 mphMostly Cloudy
5:00 PM24.8 °F15.8 °F69 %29.68 in6.2 miNNW (330°)8.1 mphSnowLight Snow Showers
5:30 PM24.8 °F15.8 °F69 %29.71 in6.2 miNNW (340°)5.8 mphSnowLight Snow Showers
6:00 PM23.0 °F17.6 °F80 %29.71 in6.2 miNW (320°)5.8 mphSnowLight Snow Showers
6:30 PM23.0 °F15.8 °F74 %29.71 in6.2 miNorth (350°)4.6 mphPartly Cloudy
7:00 PM21.2 °F14.0 °F74 %29.71 inNorth (350°)3.5 mphClear
7:30 PM19.4 °F14.0 °F80 %29.74 inNorth (360°)3.5 mphClear
8:00 PM19.4 °F14.0 °F80 %29.74 inNW (320°)4.6 mphClear
8:44 PM19.4 °F14.0 °F80 %29.74 in6.2 miVariable2.3 mphSnowLight Snow Showers
9:00 PM15.8 °F12.2 °F86 %29.74 in6.2 miCalmSnowLight Snow Showers
10:00 PM15.8 °F12.2 °F86 %29.74 in6.2 miWSW (250°)1.2 mphPartly Cloudy
11:00 PM17.6 °F15.8 °F93 %29.74 in4.3 miVariable1.2 mphSnowLight Snow Showers
Hourly data recorded from LKKV, located miles away from Cheb, Czech Republic







STORIES FROM OUR PARTNERS